Radiation Dose at Monitoring Post of Fukushima Daini Nuclear Power Station
Date,Time,MP-1(microSv/h),MP-2(microSv/h),MP-3(microSv/h),MP-4(microSv/h),MP-5(microSv/h),MP-6(microSv/h),MP-7(microSv/h),Wind Direction,Wind Velocity(m/s),Rain
2019/11/23,00:00,0.180,0.168,0.273,0.255,0.264,0.143,0.092,northwest,6.2,Yes
2019/11/23,00:10,0.180,0.167,0.273,0.255,0.262,0.143,0.092,northwest,7.1,Yes
2019/11/23,00:20,0.179,0.167,0.275,0.255,0.262,0.144,0.092,northwest,6.6,Yes
2019/11/23,00:30,0.179,0.166,0.274,0.254,0.262,0.143,0.092,northwest,7.4,Yes
2019/11/23,00:40,0.181,0.167,0.273,0.255,0.261,0.143,0.092,northwest,6.7,Yes
2019/11/23,00:50,0.179,0.167,0.274,0.255,0.261,0.143,0.092,north-northwest,6.9,Yes
2019/11/23,01:00,0.179,0.166,0.273,0.253,0.262,0.144,0.091,northwest,6.6,Yes
2019/11/23,01:10,0.179,0.166,0.272,0.253,0.262,0.143,0.092,northwest,6.9,Yes
2019/11/23,01:20,0.179,0.166,0.272,0.253,0.261,0.142,0.092,northwest,6.2,Yes
2019/11/23,01:30,0.178,0.166,0.271,0.253,0.260,0.141,0.092,northwest,6.3,Yes
2019/11/23,01:40,0.177,0.165,0.271,0.252,0.262,0.141,0.091,northwest,6.4,Yes
2019/11/23,01:50,0.178,0.165,0.271,0.252,0.259,0.141,0.091,northwest,6.5,Yes
2019/11/23,02:00,0.178,0.166,0.270,0.253,0.260,0.141,0.091,northwest,6.7,Yes
2019/11/23,02:10,0.177,0.164,0.271,0.252,0.260,0.142,0.091,northwest,6.1,Yes
2019/11/23,02:20,0.178,0.166,0.271,0.251,0.261,0.141,0.091,northwest,6.5,Yes
2019/11/23,02:30,0.177,0.165,0.271,0.253,0.258,0.142,0.090,northwest,6.1,Yes
2019/11/23,02:40,0.177,0.165,0.272,0.252,0.260,0.140,0.089,northwest,7.1,Yes
2019/11/23,02:50,0.177,0.165,0.272,0.252,0.261,0.141,0.090,northwest,5.9,Yes
2019/11/23,03:00,0.178,0.166,0.270,0.252,0.260,0.140,0.089,northwest,6.1,Yes
2019/11/23,03:10,0.177,0.164,0.270,0.253,0.260,0.140,0.089,north-northwest,6.6,Yes
2019/11/23,03:20,0.177,0.164,0.272,0.253,0.261,0.140,0.089,north-northwest,7.4,Yes
2019/11/23,03:30,0.177,0.164,0.270,0.253,0.259,0.140,0.090,northwest,8.2,Yes
2019/11/23,03:40,0.178,0.165,0.271,0.253,0.260,0.141,0.089,north-northwest,8.8,Yes
2019/11/23,03:50,0.178,0.165,0.271,0.253,0.259,0.140,0.089,northwest,7.9,Yes
2019/11/23,04:00,0.178,0.165,0.272,0.253,0.260,0.139,0.089,northwest,8.4,Yes
2019/11/23,04:10,0.178,0.163,0.271,0.251,0.258,0.139,0.089,northwest,8.1,Yes
2019/11/23,04:20,0.178,0.163,0.271,0.253,0.259,0.139,0.087,northwest,8.4,Yes
2019/11/23,04:30,0.178,0.163,0.270,0.251,0.260,0.139,0.087,northwest,7.6,No
2019/11/23,04:40,0.177,0.163,0.271,0.251,0.259,0.138,0.087,north-northwest,7.8,No
2019/11/23,04:50,0.177,0.162,0.269,0.251,0.258,0.138,0.087,north-northwest,7.4,No
2019/11/23,05:00,0.176,0.162,0.269,0.252,0.259,0.138,0.087,north-northwest,7.9,No
2019/11/23,05:10,0.176,0.161,0.270,0.250,0.257,0.137,0.086,north-northwest,7.3,Yes
2019/11/23,05:20,0.178,0.160,0.269,0.252,0.257,0.137,0.087,north-northwest,6.5,No
2019/11/23,05:30,0.176,0.160,0.269,0.252,0.258,0.138,0.086,north-northwest,7.0,No
2019/11/23,05:40,0.176,0.162,0.269,0.250,0.257,0.138,0.086,north-northwest,7.3,Yes
2019/11/23,05:50,0.176,0.161,0.270,0.252,0.259,0.137,0.086,north-northwest,7.4,No
2019/11/23,06:00,0.176,0.160,0.269,0.253,0.258,0.138,0.086,north-northwest,8.1,No
2019/11/23,06:10,0.176,0.162,0.269,0.251,0.258,0.137,0.086,north-northwest,8.6,Yes
2019/11/23,06:20,0.176,0.162,0.271,0.251,0.258,0.137,0.086,north-northwest,8.2,No
2019/11/23,06:30,0.176,0.162,0.270,0.252,0.259,0.138,0.086,north-northwest,8.4,No
2019/11/23,06:40,0.177,0.161,0.269,0.251,0.257,0.137,0.086,north-northwest,8.1,No
2019/11/23,06:50,0.176,0.161,0.270,0.252,0.257,0.137,0.085,north-northwest,8.1,No
2019/11/23,07:00,0.177,0.161,0.270,0.252,0.258,0.137,0.086,north-northwest,8.1,No
2019/11/23,07:10,0.176,0.160,0.270,0.252,0.257,0.138,0.086,northwest,7.4,Yes
2019/11/23,07:20,0.178,0.161,0.270,0.251,0.259,0.138,0.086,north-northwest,8.4,Yes
2019/11/23,07:30,0.177,0.161,0.271,0.251,0.259,0.138,0.087,north-northwest,7.7,No
2019/11/23,07:40,0.176,0.161,0.270,0.253,0.257,0.139,0.086,north-northwest,7.5,No
2019/11/23,07:50,0.177,0.161,0.269,0.251,0.258,0.138,0.086,north-northwest,7.3,No
2019/11/23,08:00,0.177,0.161,0.271,0.252,0.258,0.137,0.087,north-northwest,6.2,No
2019/11/23,08:10,0.176,0.161,0.269,0.253,0.257,0.138,0.085,north-northwest,5.8,No
2019/11/23,08:20,0.176,0.162,0.269,0.252,0.258,0.138,0.085,northwest,5.4,No
2019/11/23,08:30,0.177,0.162,0.271,0.250,0.259,0.137,0.085,north-northwest,6.2,No
2019/11/23,08:40,0.177,0.160,0.271,0.252,0.257,0.138,0.085,north-northwest,6.6,No
2019/11/23,08:50,0.178,0.161,0.269,0.252,0.257,0.138,0.086,north-northwest,6.3,Yes
2019/11/23,09:00,0.177,0.161,0.270,0.251,0.260,0.138,0.086,north-northwest,6.4,No
2019/11/23,09:10,0.177,0.161,0.271,0.252,0.257,0.137,0.087,north-northwest,6.1,Yes
2019/11/23,09:20,0.178,0.162,0.270,0.252,0.257,0.139,0.087,north-northwest,5.9,Yes
2019/11/23,09:30,0.179,0.163,0.270,0.251,0.260,0.138,0.086,north-northwest,5.5,Yes
2019/11/23,09:40,0.178,0.164,0.272,0.253,0.258,0.140,0.087,north-northwest,6.1,Yes
2019/11/23,09:50,0.179,0.162,0.271,0.254,0.259,0.139,0.087,north-northwest,5.9,Yes
2019/11/23,10:00,0.179,0.163,0.271,0.252,0.259,0.140,0.088,north-northwest,5.8,No
2019/11/23,10:10,0.177,0.162,0.272,0.253,0.259,0.139,0.087,north-northwest,5.5,No
2019/11/23,10:20,0.178,0.163,0.271,0.252,0.261,0.141,0.087,north,5.5,Yes
2019/11/23,10:30,0.179,0.163,0.272,0.253,0.259,0.140,0.087,north-northwest,5.6,Yes
2019/11/23,10:40,0.179,0.161,0.270,0.253,0.257,0.141,0.086,north-northwest,5.8,No
2019/11/23,10:50,0.178,0.162,0.271,0.252,0.259,0.139,0.085,northwest,6.9,No
2019/11/23,11:00,0.178,0.161,0.271,0.252,0.258,0.139,0.087,northwest,6.7,No
2019/11/23,11:10,0.176,0.161,0.269,0.253,0.259,0.140,0.086,northwest,6.9,No
2019/11/23,11:20,0.177,0.162,0.269,0.253,0.257,0.138,0.086,north-northwest,7.3,No
2019/11/23,11:30,0.176,0.160,0.271,0.251,0.258,0.138,0.085,north-northwest,6.5,No
2019/11/23,11:40,0.177,0.161,0.270,0.252,0.260,0.139,0.085,north-northwest,7.0,No
2019/11/23,11:50,0.177,0.161,0.269,0.252,0.256,0.138,0.086,north-northwest,5.9,No
2019/11/23,12:00,0.176,0.161,0.270,0.252,0.258,0.139,0.086,north-northwest,6.2,No
2019/11/23,12:10,0.177,0.161,0.271,0.252,0.258,0.138,0.085,northwest,7.3,No
2019/11/23,12:20,0.176,0.161,0.270,0.252,0.257,0.138,0.085,north-northwest,6.3,No
2019/11/23,12:30,0.176,0.160,0.270,0.253,0.258,0.136,0.085,northwest,6.6,No
2019/11/23,12:40,0.177,0.161,0.269,0.252,0.257,0.138,0.085,north-northwest,7.3,No
2019/11/23,12:50,0.177,0.162,0.269,0.253,0.260,0.139,0.085,northwest,7.1,Yes
2019/11/23,13:00,0.177,0.161,0.271,0.252,0.258,0.139,0.086,north-northwest,7.3,No
2019/11/23,13:10,0.178,0.161,0.271,0.251,0.258,0.139,0.086,north-northwest,7.4,No
2019/11/23,13:20,0.177,0.162,0.272,0.253,0.260,0.138,0.086,north-northwest,6.2,No
2019/11/23,13:30,0.178,0.161,0.272,0.252,0.258,0.138,0.085,north-northwest,6.0,No
2019/11/23,13:40,0.177,0.162,0.270,0.252,0.259,0.138,0.085,northwest,6.5,Yes
2019/11/23,13:50,0.177,0.161,0.270,0.254,0.258,0.138,0.085,northwest,6.4,Yes
2019/11/23,14:00,0.178,0.162,0.271,0.251,0.257,0.138,0.085,north-northwest,6.5,Yes
2019/11/23,14:10,0.178,0.162,0.270,0.253,0.260,0.137,0.086,north-northwest,6.6,Yes
2019/11/23,14:20,0.178,0.162,0.271,0.253,0.256,0.138,0.086,north-northwest,6.6,Yes
2019/11/23,14:30,0.179,0.162,0.270,0.252,0.259,0.139,0.086,north-northwest,6.5,No
2019/11/23,14:40,0.177,0.163,0.271,0.252,0.258,0.138,0.086,north-northwest,5.5,No
2019/11/23,14:50,0.179,0.163,0.272,0.251,0.257,0.139,0.087,north-northwest,5.0,No
2019/11/23,15:00,0.176,0.163,0.269,0.253,0.260,0.139,0.086,north-northwest,5.2,Yes
2019/11/23,15:10,0.179,0.163,0.272,0.252,0.257,0.140,0.086,north-northwest,5.2,Yes
2019/11/23,15:20,0.179,0.163,0.270,0.254,0.259,0.140,0.087,north-northwest,5.6,No
2019/11/23,15:30,0.178,0.163,0.271,0.254,0.258,0.139,0.086,northwest,4.9,No
2019/11/23,15:40,0.178,0.161,0.272,0.252,0.257,0.140,0.087,northwest,5.1,Yes
2019/11/23,15:50,0.178,0.163,0.270,0.252,0.260,0.139,0.087,north-northwest,4.5,Yes
2019/11/23,16:00,0.178,0.163,0.270,0.253,0.258,0.140,0.086,north-northwest,4.8,No
2019/11/23,16:10,0.178,0.163,0.270,0.252,0.258,0.138,0.086,north-northwest,5.4,No
2019/11/23,16:20,0.177,0.162,0.270,0.252,0.259,0.138,0.086,north-northwest,5.9,No
2019/11/23,16:30,0.177,0.162,0.270,0.253,0.258,0.139,0.087,north-northwest,6.9,No
2019/11/23,16:40,0.177,0.162,0.270,0.253,0.259,0.139,0.086,north-northwest,7.3,No
2019/11/23,16:50,0.178,0.161,0.271,0.253,0.257,0.138,0.086,north-northwest,7.7,No
2019/11/23,17:00,0.178,0.161,0.272,0.253,0.258,0.139,0.086,north-northwest,8.1,No
2019/11/23,17:10,0.177,0.161,0.271,0.253,0.259,0.139,0.086,north-northwest,7.3,No
2019/11/23,17:20,0.177,0.162,0.270,0.253,0.258,0.138,0.085,north-northwest,7.8,No
2019/11/23,17:30,0.178,0.162,0.270,0.252,0.259,0.138,0.086,north-northwest,7.7,No
2019/11/23,17:40,0.178,0.162,0.270,0.252,0.257,0.138,0.085,north-northwest,7.3,No
2019/11/23,17:50,0.177,0.162,0.270,0.251,0.258,0.138,0.085,northwest,7.1,No
2019/11/23,18:00,0.176,0.159,0.269,0.252,0.257,0.137,0.085,north-northwest,7.4,No
2019/11/23,18:10,0.176,0.160,0.270,0.253,0.257,0.138,0.085,north-northwest,7.3,No
2019/11/23,18:20,0.177,0.161,0.271,0.252,0.259,0.138,0.086,north-northwest,6.7,No
2019/11/23,18:30,0.177,0.160,0.271,0.252,0.257,0.138,0.085,north-northwest,6.3,No
2019/11/23,18:40,0.178,0.162,0.269,0.251,0.259,0.138,0.086,north-northwest,6.0,No
2019/11/23,18:50,0.177,0.161,0.271,0.253,0.259,0.138,0.085,north-northwest,5.9,No
2019/11/23,19:00,0.177,0.161,0.270,0.253,0.257,0.138,0.086,north-northwest,4.8,Yes
2019/11/23,19:10,0.178,0.162,0.270,0.253,0.261,0.140,0.086,north-northwest,4.5,Yes
2019/11/23,19:20,0.178,0.162,0.272,0.254,0.258,0.140,0.086,north-northwest,4.5,No
2019/11/23,19:30,0.177,0.162,0.269,0.254,0.258,0.139,0.087,north-northwest,5.3,No
2019/11/23,19:40,0.178,0.163,0.271,0.253,0.260,0.139,0.086,north-northwest,4.9,No
2019/11/23,19:50,0.178,0.161,0.271,0.254,0.258,0.139,0.087,north,4.1,No
2019/11/23,20:00,0.178,0.162,0.270,0.252,0.260,0.139,0.086,north-northwest,5.1,No
2019/11/23,20:10,0.177,0.161,0.270,0.252,0.257,0.139,0.085,north,4.3,No
2019/11/23,20:20,0.177,0.163,0.270,0.252,0.259,0.139,0.086,north,5.0,No
2019/11/23,20:30,0.176,0.160,0.271,0.252,0.259,0.139,0.085,north-northwest,3.0,No
2019/11/23,20:40,0.177,0.161,0.270,0.253,0.256,0.138,0.085,north-northwest,4.8,No
2019/11/23,20:50,0.177,0.161,0.272,0.252,0.260,0.138,0.085,north-northwest,5.2,No
2019/11/23,21:00,0.176,0.161,0.270,0.253,0.257,0.139,0.085,northwest,3.4,No
2019/11/23,21:10,0.177,0.161,0.269,0.252,0.259,0.138,0.085,north-northwest,4.5,No
2019/11/23,21:20,0.177,0.162,0.271,0.252,0.258,0.139,0.085,north-northwest,5.0,Yes
2019/11/23,21:30,0.177,0.161,0.270,0.253,0.257,0.138,0.085,north-northwest,5.3,Yes
2019/11/23,21:40,0.178,0.162,0.270,0.252,0.260,0.140,0.086,north-northwest,3.1,No
2019/11/23,21:50,0.178,0.161,0.272,0.253,0.258,0.141,0.087,north-northwest,4.3,Yes
2019/11/23,22:00,0.177,0.162,0.270,0.252,0.260,0.139,0.086,north-northwest,3.6,No
2019/11/23,22:10,0.178,0.164,0.272,0.252,0.259,0.139,0.087,northwest,4.8,No
2019/11/23,22:20,0.178,0.162,0.272,0.254,0.259,0.140,0.086,northwest,4.5,No
2019/11/23,22:30,0.179,0.163,0.270,0.253,0.261,0.140,0.086,north-northwest,3.3,Yes
2019/11/23,22:40,0.178,0.163,0.272,0.253,0.259,0.140,0.086,northwest,2.9,Yes
2019/11/23,22:50,0.178,0.163,0.271,0.255,0.259,0.141,0.087,northwest,4.0,Yes
2019/11/23,23:00,0.179,0.164,0.271,0.253,0.260,0.140,0.087,northwest,4.1,Yes
2019/11/23,23:10,0.180,0.164,0.273,0.255,0.260,0.141,0.088,northwest,4.8,Yes
2019/11/23,23:20,0.181,0.165,0.271,0.256,0.261,0.142,0.088,west,1.6,Yes
2019/11/23,23:30,0.180,0.165,0.273,0.253,0.260,0.142,0.089,west,0.6,Yes
2019/11/23,23:40,0.180,0.165,0.273,0.256,0.262,0.143,0.090,-,CALM,Yes
2019/11/23,23:50,0.181,0.165,0.272,0.254,0.261,0.142,0.090,-,CALM,Yes
